Temp
62 62 61 61 60 61 60 60 60 61 61 61 61 61 62 62 62 61 69 80 79 74 78 77 80 81 78 74 74 71 58 55 61 66 72 78 73 80 82 76 78 78 73 75 73
62 61 61 61 60 60 60 60 60 61 61 61 61 61 61 62 61 68 78 76 75 75 81 78 79 78 69 71 71 67 55 62 73 73 70 77 75 79 77 74 73 74 74 73 73
61 61 61 61 61 60 60 59 60 61 61 61 61 61 61 60 63 78 79 78 76 76 84 85 82 77 66 69 69 66 61 71 75 80 79 79 79 81 74 67 72 72 69 70 71
60 61 61 60 60 60 60 60 60 60 60 60 60 61 61 60 65 79 78 77 76 80 83 81 74 66 65 66 72 66 75 75 77 80 77 75 75 76 75 73 77 76 72 71 70
60 60 60 60 60 59 59 60 60 60 60 60 60 61 60 62 73 81 78 77 79 81 82 78 70 68 63 68 69 71 74 77 80 78 78 78 77 72 70 77 77 75 72 70 69
59 59 59 59 59 59 59 58 58 59 59 60 61 61 63 63 82 79 79 80 81 80 80 77 74 75 70 71 69 73 74 79 77 77 77 74 71 73 71 75 74 72 69 68 67
59 59 59 59 59 59 59 58 57 58 60 60 62 66 65 74 82 79 78 77 81 84 80 80 80 74 74 71 76 75 69 72 74 74 73 75 68 64 69 72 68 67 67 68 68
59 58 58 59 58 59 59 58 58 59 60 61 62 62 67 80 79 79 78 80 82 82 83 84 86 77 71 78 74 69 67 60 71 71 74 72 58 65 68 68 64 66 68 68 66
59 58 58 58 57 57 57 57 58 60 62 62 59 61 70 79 81 85 85 85 84 83 83 92 80 71 73 65 61 62 55 60 66 73 72 67 60 65 69 67 65 64 66 68 67
59 58 58 58 57 57 55 57 61 60 63 68 73 64 73 78 83 87 84 86 82 81 81 77 69 64 61 60 52 57 57 62 62 70 68 61 61 64 66 66 65 64 65 65 64
59 58 57 57 57 57 53 59 65 63 62 71 71 72 77 84 87 85 87 83 80 75 67 69 64 58 61 64 66 63 60 61 66 71 62 59 60 64 64 63 62 61 61 63 64
59 58 58 57 57 56 51 63 69 71 66 73 75 75 81 81 78 84 88 77 73 67 68 64 59 68 71 70 69 67 64 65 67 70 63 58 59 62 63 62 61 61 61 62 62
58 57 57 57 56 52 57 68 73 73 62 72 74 76 78 82 77 80 82 76 72 66 65 61 67 74 73 68 66 66 61 64 64 69 62 59 55 57 63 63 64 63 62 63 62
57 57 57 55 57 56 63 71 72 71 57 67 72 79 81 81 76 86 86 81 69 68 65 64 69 70 68 70 71 59 71 68 64 59 52 59 45 53 57 58 62 61 60 61 62
57 57 56 55 54 62 73 66 67 72 48 73 73 83 79 77 75 79 83 78 71 70 68 66 66 65 64 69 72 66 69 65 63 55 51 52 47 51 55 56 56 58 61 59 60
57 57 56 53 49 61 64 66 71 58 50 69 77 73 71 72 74 78 78 80 78 70 68 69 71 70 70 73 72 72 64 59 53 50 44 49 48 47 52 58 58 60 60 61 59
57 56 53 60 66 63 65 69 56 50 70 70 69 73 70 69 72 75 71 68 63 56 56 64 66 71 74 65 68 63 53 44 43 44 42 49 47 48 57 61 62 60 58 59 61
55 53 52 58 56 61 68 63 46 62 65 75 74 72 68 71 70 71 66 63 65 61 55 54 55 66 71 65 61 59 56 46 38 37 42 50 44 50 59 61 61 60 57 59 62
53 54 52 59 56 60 65 50 54 61 72 71 71 64 63 69 68 66 62 62 64 62 56 53 56 70 72 71 66 58 53 53 45 44 40 45 50 57 59 56 57 56 57 58 60
49 55 63 64 64 66 59 51 59 70 75 72 61 66 59 63 62 61 60 64 65 67 63 59 52 66 70 70 64 60 60 48 44 36 34 43 44 45 53 53 55 54 54 55 55
55 62 70 65 68 61 52 53 64 75 75 69 65 64 64 63 62 60 62 64 67 66 63 57 54 57 62 57 56 54 51 48 46 43 39 37 42 52 55 55 55 54 55 55 55
52 60 70 70 61 50 52 61 65 74 76 73 69 68 64 64 61 61 61 61 67 66 59 56 51 48 56 62 62 57 53 54 45 42 42 40 41 57 57 58 58 56 57 56 56
51 54 68 70 54 52 59 67 72 71 71 70 67 69 67 62 57 61 62 68 67 64 59 58 50 43 48 53 55 54 56 56 52 46 41 40 42 58 57 56 57 55 55 57 57
54 55 60 59 56 55 55 60 64 73 72 72 69 68 65 60 61 58 61 66 65 63 62 60 50 49 45 49 53 52 56 56 51 42 45 44 48 53 55 56 56 55 55 56 57
56 53 55 52 58 57 56 59 62 64 71 71 65 66 63 55 56 56 60 61 62 60 58 54 48 50 53 57 58 56 57 59 52 53 48 51 50 54 55 56 56 58 56 56 56
51 52 54 54 58 57 53 57 62 65 66 65 63 65 63 57 59 57 58 54 55 55 52 52 48 49 50 57 56 54 59 60 62 60 57 56 53 57 57 59 58 58 58 57 56
51 55 53 52 55 54 56 60 63 65 69 69 68 64 62 63 64 57 57 55 55 54 54 53 48 45 43 51 51 48 53 56 58 59 58 52 56 59 57 60 57 57 57 58 59
MSLP
1016.88 1016.58 1016.31 1016.02 1015.77 1015.56 1015.42 1015.27 1015.11 1014.98 1014.83 1014.70 1014.60 1014.42 1014.21 1014.00 1013.49 1013.55 1012.43 1010.17 1009.99 1010.13 1010.77 1011.69 1011.85 1011.78 1012.03 1012.10 1012.34 1012.78 1013.27 1012.43 1010.96 1009.88 1009.01 1008.25 1008.17 1008.39 1008.59 1009.38 1010.03 1010.63 1011.27 1011.45 1012.41
1016.88 1016.59 1016.30 1016.01 1015.72 1015.46 1015.28 1015.18 1015.05 1014.91 1014.83 1014.73 1014.49 1014.27 1014.12 1013.94 1013.53 1012.18 1009.43 1009.37 1009.51 1010.04 1010.81 1011.26 1011.49 1011.72 1012.06 1011.91 1012.10 1012.45 1012.66 1011.24 1009.45 1009.04 1008.83 1008.50 1008.67 1008.48 1008.86 1009.68 1010.17 1010.77 1011.24 1011.74 1012.76
1016.95 1016.65 1016.34 1016.02 1015.72 1015.42 1015.21 1015.05 1014.89 1014.78 1014.66 1014.52 1014.32 1014.16 1013.97 1013.88 1013.05 1009.77 1008.28 1008.72 1009.15 1010.12 1010.45 1010.59 1010.81 1011.24 1011.70 1011.42 1011.66 1011.88 1011.45 1010.05 1009.20 1008.65 1008.48 1008.54 1008.27 1008.76 1009.12 1010.12 1009.82 1010.02 1011.34 1012.47 1012.99
1016.98 1016.63 1016.29 1015.98 1015.63 1015.32 1015.06 1014.86 1014.70 1014.57 1014.47 1014.36 1014.19 1013.99 1013.72 1013.51 1011.50 1008.36 1008.21 1008.44 1009.26 1010.13 1010.39 1010.36 1010.58 1011.08 1011.14 1011.12 1010.82 1011.24 1010.27 1009.68 1008.70 1008.01 1008.18 1008.15 1008.06 1008.43 1009.08 1009.76 1009.69 1010.39 1011.53 1012.46 1013.63
1016.96 1016.62 1016.24 1015.90 1015.59 1015.26 1014.98 1014.74 1014.55 1014.43 1014.30 1014.19 1014.03 1013.79 1013.43 1012.43 1009.90 1007.91 1008.04 1008.33 1009.49 1010.01 1010.18 1010.19 1010.33 1010.54 1010.50 1010.42 1010.41 1010.38 1009.59 1008.87 1008.14 1008.11 1008.04 1008.06 1008.24 1009.13 1009.82 1009.55 1009.84 1010.59 1011.82 1012.81 1013.22
1016.91 1016.52 1016.13 1015.72 1015.39 1015.08 1014.80 1014.60 1014.39 1014.22 1014.11 1013.96 1013.80 1013.67 1013.12 1011.02 1008.08 1007.99 1008.26 1008.67 1009.01 1009.52 1009.71 1009.78 1009.71 1009.77 1009.94 1009.83 1009.83 1009.11 1009.08 1008.38 1008.25 1007.95 1008.03 1008.46 1009.16 1009.37 1010.27 1009.82 1010.36 1010.98 1011.82 1012.89 1013.17
1016.97 1016.54 1016.11 1015.69 1015.24 1014.89 1014.54 1014.32 1014.14 1014.01 1013.88 1013.76 1013.65 1013.40 1012.37 1009.33 1008.06 1008.08 1008.36 1008.54 1008.63 1008.78 1009.18 1009.20 1009.33 1009.50 1009.29 1009.23 1009.03 1008.92 1009.20 1008.93 1008.45 1008.11 1008.27 1008.55 1009.84 1010.93 1011.36 1011.53 1011.43 1011.95 1012.70 1012.53 1013.01
1017.00 1016.52 1016.07 1015.55 1015.13 1014.72 1014.30 1014.01 1013.80 1013.68 1013.56 1013.51 1013.53 1013.18 1011.14 1008.28 1008.19 1008.19 1008.10 1008.30 1008.42 1008.52 1008.62 1008.89 1008.93 1009.12 1009.39 1009.07 1009.13 1009.60 1009.63 1009.82 1008.81 1008.64 1008.72 1008.82 1010.86 1011.63 1011.83 1011.79 1012.17 1012.83 1013.01 1013.48 1013.80
1016.96 1016.41 1015.88 1015.42 1015.01 1014.55 1014.08 1013.58 1013.32 1013.42 1013.39 1013.37 1013.40 1012.70 1010.05 1008.18 1008.17 1007.60 1007.71 1007.83 1008.01 1008.36 1008.43 1008.55 1008.67 1009.34 1009.56 1010.17 1010.60 1010.88 1010.81 1010.39 1009.51 1008.86 1009.03 1009.57 1010.84 1011.79 1012.03 1011.94 1012.24 1013.64 1013.65 1013.61 1013.67
1016.77 1016.20 1015.69 1015.25 1014.82 1014.33 1013.75 1013.24 1013.11 1013.32 1013.42 1013.28 1012.78 1012.34 1009.29 1007.84 1007.26 1007.23 1007.45 1007.95 1008.21 1008.47 1008.54 1008.80 1009.66 1010.26 1010.94 1011.09 1011.55 1011.21 1011.07 1010.60 1010.20 1009.28 1009.56 1010.44 1011.18 1011.79 1012.34 1012.58 1013.64 1013.69 1013.60 1013.44 1013.57
1016.58 1016.01 1015.43 1014.99 1014.60 1014.29 1013.67 1013.31 1013.45 1013.08 1012.63 1011.32 1010.69 1009.95 1008.37 1007.42 1006.88 1007.00 1007.31 1007.93 1008.50 1008.92 1009.30 1009.60 1010.42 1010.96 1010.87 1010.74 1010.71 1010.70 1010.72 1010.55 1009.82 1009.57 1010.30 1011.27 1011.72 1011.85 1012.24 1012.46 1012.88 1013.50 1013.61 1013.32 1013.25
1016.25 1015.70 1015.14 1014.69 1014.33 1014.13 1014.28 1013.16 1011.62 1011.25 1010.88 1009.72 1009.31 1009.03 1008.23 1007.73 1007.52 1006.85 1007.19 1008.23 1008.59 1009.20 1009.44 1010.38 1010.65 1010.37 1009.99 1009.93 1009.81 1009.68 1010.13 1009.92 1009.47 1009.78 1010.78 1012.00 1012.47 1012.39 1012.42 1012.66 1012.96 1013.36 1013.66 1013.80 1013.63
1016.03 1015.46 1014.81 1014.27 1013.87 1013.94 1013.52 1011.88 1010.47 1010.53 1010.63 1008.95 1008.32 1007.82 1007.40 1007.43 1007.25 1006.75 1007.26 1007.80 1008.42 1009.20 1009.51 1010.18 1009.97 1009.62 1009.83 1009.45 1009.33 1009.41 1009.80 1009.81 1010.30 1010.59 1011.53 1012.18 1012.94 1012.94 1012.70 1012.89 1012.85 1013.07 1013.53 1013.66 1013.85
1015.83 1015.29 1014.65 1013.94 1014.00 1013.40 1012.34 1010.80 1010.40 1010.45 1010.38 1008.48 1007.63 1006.38 1006.56 1006.69 1006.73 1005.89 1006.26 1007.17 1008.29 1008.75 1009.57 1009.95 1009.16 1009.39 1009.44 1009.16 1008.65 1009.05 1008.76 1009.61 1010.35 1011.45 1012.00 1012.43 1013.50 1013.28 1013.23 1013.47 1013.42 1013.45 1013.45 1013.49 1013.99
1015.59 1015.04 1014.55 1014.34 1013.92 1012.80 1010.81 1010.57 1010.18 1010.21 1009.69 1007.41 1006.57 1005.37 1005.89 1006.46 1006.18 1005.76 1005.86 1006.73 1007.57 1008.40 1009.45 1008.95 1008.96 1009.01 1009.16 1008.40 1008.22 1008.83 1009.00 1009.87 1010.60 1011.54 1012.51 1013.26 1013.77 1013.04 1013.20 1013.38 1013.71 1013.97 1013.86 1014.09 1014.47
1015.07 1014.66 1014.37 1014.17 1014.00 1011.18 1010.35 1010.37 1010.21 1010.62 1008.85 1006.94 1005.87 1005.92 1006.35 1006.33 1006.34 1006.06 1006.10 1006.34 1006.83 1008.05 1008.62 1008.40 1008.22 1008.37 1007.82 1007.70 1007.90 1008.32 1009.12 1010.29 1011.68 1012.62 1013.98 1013.53 1013.92 1013.52 1013.03 1012.98 1013.63 1014.01 1014.10 1014.66 1015.21
1014.30 1013.74 1013.97 1013.11 1011.95 1010.73 1010.33 1010.57 1011.23 1010.46 1008.58 1007.12 1006.26 1006.05 1006.45 1006.60 1006.49 1006.46 1006.57 1006.93 1007.84 1008.71 1008.92 1008.42 1008.04 1007.57 1007.38 1007.86 1008.14 1009.19 1010.41 1011.93 1013.42 1014.28 1014.47 1013.95 1014.23 1012.83 1012.08 1012.62 1013.10 1013.83 1014.50 1015.16 1015.57
1013.75 1012.84 1012.76 1011.97 1011.15 1010.84 1010.59 1011.59 1011.46 1010.04 1008.68 1007.22 1006.62 1006.58 1006.92 1006.91 1007.04 1007.03 1007.48 1008.09 1008.24 1008.78 1009.25 1009.07 1008.43 1007.84 1007.54 1007.82 1008.48 1009.42 1010.74 1012.43 1013.68 1015.05 1014.86 1014.42 1013.87 1012.31 1012.13 1012.48 1012.92 1013.80 1014.53 1015.35 1015.60
1013.22 1012.61 1012.56 1010.79 1010.91 1011.45 1011.66 1012.36 1011.34 1009.99 1008.74 1007.85 1007.25 1007.38 1007.57 1007.38 1007.50 1007.71 1008.13 1008.65 1008.78 1008.94 1009.28 1009.52 1009.03 1008.17 1007.93 1008.13 1009.10 1010.29 1011.72 1012.72 1013.99 1015.39 1015.65 1014.41 1013.44 1012.40 1012.56 1013.42 1014.16 1014.40 1014.85 1015.71 1015.98
1014.47 1013.29 1011.51 1010.31 1010.60 1011.01 1012.12 1012.29 1011.04 1009.57 1008.38 1007.87 1007.69 1007.68 1007.94 1007.84 1007.98 1008.11 1008.47 1008.95 1009.26 1009.54 1009.21 1010.06 1010.01 1009.38 1008.95 1008.93 1009.80 1010.26 1011.82 1013.18 1014.62 1015.84 1016.07 1014.88 1014.21 1013.30 1013.23 1013.88 1014.39 1014.74 1015.07 1015.84 1016.20
1014.52 1013.29 1011.10 1010.58 1010.71 1011.81 1012.81 1012.19 1010.60 1008.94 1008.41 1008.20 1007.71 1007.74 1007.86 1008.07 1008.38 1008.84 1009.16 1009.64 1009.99 1010.05 1010.05 1010.55 1010.88 1010.56 1009.99 1010.23 1010.73 1011.20 1012.20 1013.58 1014.74 1015.48 1015.68 1015.33 1013.99 1012.12 1012.35 1012.94 1013.59 1014.43 1015.00 1015.52 1015.97
1015.60 1013.95 1011.49 1011.09 1012.02 1013.16 1013.04 1011.73 1010.03 1008.49 1007.73 1007.62 1007.48 1007.62 1008.01 1008.58 1009.07 1009.47 1009.93 1010.47 1010.54 1010.73 1011.05 1011.64 1011.97 1011.91 1011.12 1010.54 1010.83 1011.44 1012.06 1013.02 1014.48 1015.42 1015.58 1015.23 1013.18 1011.66 1011.91 1012.42 1013.06 1013.94 1014.59 1015.08 1015.48
1017.06 1015.00 1011.91 1011.50 1012.90 1013.56 1012.69 1011.53 1010.17 1008.96 1007.95 1007.51 1007.94 1007.98 1008.42 1009.19 1009.87 1010.14 1010.50 1010.62 1010.83 1011.05 1011.35 1011.80 1012.58 1012.85 1011.96 1011.64 1011.42 1011.45 1011.85 1012.50 1013.14 1014.38 1014.77 1014.84 1012.81 1011.87 1012.01 1012.25 1012.93 1013.65 1014.33 1014.80 1015.20
1017.39 1015.91 1014.05 1013.47 1013.69 1013.58 1013.15 1011.72 1010.40 1008.71 1008.29 1007.92 1008.33 1008.26 1008.85 1009.89 1010.18 1010.76 1010.94 1010.90 1011.19 1011.45 1011.71 1012.13 1013.03 1013.08 1012.70 1011.95 1011.67 1011.68 1011.52 1011.78 1012.50 1013.45 1013.42 1013.12 1012.34 1011.97 1012.03 1012.28 1012.84 1013.50 1014.09 1014.51 1014.76
1017.71 1017.52 1016.70 1015.55 1014.44 1014.08 1013.51 1012.31 1011.00 1009.62 1008.66 1008.39 1008.98 1009.05 1009.44 1010.47 1010.91 1011.14 1011.32 1011.40 1011.71 1012.39 1012.75 1013.15 1013.41 1012.97 1012.36 1011.90 1011.55 1011.25 1011.04 1011.24 1011.79 1011.81 1011.97 1011.59 1011.76 1011.09 1011.18 1011.87 1012.39 1012.87 1013.81 1014.48 1014.81
1018.78 1018.48 1017.35 1016.37 1015.29 1014.51 1013.75 1012.60 1011.35 1010.28 1009.77 1009.19 1009.44 1009.80 1009.95 1010.71 1011.12 1011.50 1011.77 1012.21 1012.58 1013.17 1013.54 1014.03 1013.90 1013.73 1012.99 1012.17 1011.91 1011.36 1010.70 1010.42 1010.68 1010.49 1010.46 1010.61 1010.63 1010.24 1010.93 1011.83 1012.47 1012.96 1013.53 1014.11 1014.47
1019.41 1018.86 1018.44 1016.78 1015.89 1014.92 1013.97 1012.92 1011.71 1011.15 1009.92 1009.29 1009.49 1009.92 1010.49 1010.93 1011.35 1012.07 1012.36 1012.91 1013.25 1013.49 1014.08 1014.51 1014.75 1014.77 1013.78 1012.88 1012.17 1011.83 1011.15 1010.42 1009.93 1009.88 1009.74 1010.33 1010.45 1010.64 1011.15 1011.59 1012.08 1012.70 1013.22 1013.51 1013.88
Wind_Speed
12 12 12 13 12 10 9 9 9 8 8 9 9 8 9 10 13 3 7 11 8 10 8 8 2 3 3 4 3 4 2 4 4 3 4 1 4 2 2 7 4 6 5 3 17
13 12 12 12 12 12 11 9 8 9 8 8 9 9 9 8 3 7 10 9 8 14 6 7 5 7 3 4 4 4 2 7 6 2 2 5 3 4 4 4 3 2 4 11 18
14 13 12 11 11 11 10 10 9 9 9 9 9 9 9 5 2 9 8 14 12 11 3 5 5 5 3 4 5 6 6 5 7 7 6 6 11 6 5 4 8 11 8 15 17
15 14 13 12 11 11 10 9 9 9 9 9 9 10 10 3 6 2 2 13 11 9 3 2 2 3 4 4 5 1 7 4 7 5 3 5 2 7 6 3 5 6 13 15 13
16 15 14 13 12 12 11 9 8 8 9 8 8 9 2 0 9 3 3 11 10 7 6 5 3 3 4 3 1 6 5 6 7 10 8 3 7 4 1 4 10 16 15 14 13
16 16 15 15 13 13 10 8 8 8 8 8 7 9 1 2 3 2 6 8 7 7 5 7 4 6 5 5 5 6 6 9 4 8 5 3 4 4 4 4 14 16 15 11 10
16 16 16 15 15 14 12 9 9 8 8 7 5 3 0 10 3 4 3 3 7 6 5 6 4 0 4 4 3 2 1 4 5 2 4 2 5 5 6 5 10 11 12 12 10
15 15 16 17 17 15 14 12 9 8 5 4 2 1 7 3 3 4 3 2 5 5 3 3 5 4 2 6 8 6 6 6 7 3 4 0 1 5 2 4 7 10 10 6 2
15 15 16 16 18 17 17 17 10 5 2 5 1 1 8 1 2 6 5 5 2 3 4 6 1 2 6 4 6 7 3 4 8 4 2 6 0 1 4 3 6 6 4 5 5
17 16 16 15 17 17 20 5 7 4 1 3 3 2 6 4 3 4 3 1 2 5 5 4 5 3 4 6 2 5 3 4 6 5 5 3 2 2 6 5 6 5 4 5 4
18 18 17 15 16 15 9 1 3 1 1 9 6 4 4 4 2 3 4 5 2 3 1 3 6 4 4 5 5 3 4 6 8 4 6 4 2 6 3 2 4 7 2 4 5
20 19 18 16 16 12 1 2 2 4 7 10 9 6 5 2 5 7 8 6 5 7 3 5 2 9 8 6 5 3 6 9 8 5 6 1 3 6 6 4 4 4 5 6 7
21 19 19 17 16 2 1 6 3 4 1 7 6 6 6 9 7 9 8 4 5 5 5 6 8 7 5 5 2 2 3 5 9 3 5 6 5 4 4 3 7 5 5 5 7
21 19 18 21 2 3 4 3 8 6 5 6 3 8 5 5 5 8 9 8 1 10 5 6 4 8 6 7 6 3 7 7 6 2 5 4 5 4 3 5 5 6 4 7 6
22 20 14 8 3 2 1 5 1 4 3 1 4 0 5 9 3 3 4 5 10 7 7 13 5 7 6 14 3 10 2 3 2 3 3 1 3 6 2 3 0 4 6 5 3
25 20 11 1 1 8 8 7 4 7 3 6 5 3 4 1 2 4 2 2 4 6 5 10 2 7 11 9 6 6 1 4 4 4 1 4 5 6 5 5 3 1 6 7 4
28 22 5 1 4 5 5 5 7 3 5 9 2 4 4 3 3 5 2 4 0 2 4 5 4 4 4 3 3 5 7 4 4 2 7 1 1 10 4 4 6 8 7 5 6
30 18 7 5 4 6 4 7 2 2 6 5 3 4 3 4 4 2 2 3 0 3 2 1 7 2 0 3 6 3 8 7 7 5 5 1 6 7 3 4 6 10 8 6 9
26 1 1 5 7 1 8 4 7 5 3 6 4 6 5 2 1 1 2 2 2 1 5 3 4 3 3 0 4 2 3 1 7 4 2 4 6 7 7 8 6 8 9 8 8
5 5 4 2 6 5 7 5 4 4 6 1 4 5 2 3 1 3 2 2 1 4 0 4 1 2 3 3 4 5 4 3 3 3 5 4 5 7 5 9 8 8 8 6 5
2 4 4 1 2 7 4 6 5 7 4 3 4 3 3 3 1 2 3 2 3 2 5 3 4 5 1 1 4 3 2 5 4 4 4 2 7 7 9 9 12 9 9 10 8
4 3 4 3 5 1 2 4 5 7 5 9 5 5 2 2 0 3 1 4 7 3 2 3 4 4 8 2 5 3 4 5 5 4 2 3 9 3 8 7 9 10 10 8 8
3 3 3 5 2 3 6 6 6 5 6 1 6 5 4 5 4 3 1 4 4 1 5 3 1 3 10 7 1 4 5 3 6 4 6 5 8 2 3 2 6 9 8 9 9
2 4 5 5 0 3 4 5 6 5 3 6 3 3 5 4 5 2 2 3 1 1 1 5 4 8 8 8 4 4 6 6 6 4 4 7 6 5 7 6 7 6 7 8 7
3 1 1 4 4 4 2 2 4 6 5 5 5 4 4 3 2 2 3 3 3 5 4 3 5 5 5 7 6 5 7 7 8 6 5 5 8 8 11 8 8 8 6 7 7
3 4 5 3 5 5 1 2 4 6 5 4 7 2 4 4 5 5 3 2 3 2 2 4 3 3 4 4 4 6 7 10 10 9 6 5 10 5 6 5 6 9 9 8 7
3 3 2 4 4 3 2 3 5 6 5 3 8 4 5 1 2 3 5 5 3 3 2 3 3 4 6 4 7 3 5 5 2 2 4 3 2 2 4 7 8 8 9 10 8
Wind_Direction
353 353 352 349 342 338 336 333 330 327 320 316 312 313 315 314 304 181 233 215 189 156 122 119 105 177 153 240 147 124 51 282 251 276 313 343 139 116 120 119 187 187 145 201 146
354 353 352 350 347 337 335 334 328 323 315 312 311 315 316 325 278 248 235 193 183 135 122 155 171 162 213 206 179 146 158 235 260 64 298 360 341 174 135 129 238 136 64 127 143
352 351 352 350 344 337 332 332 327 322 319 317 315 314 308 314 265 243 207 190 193 146 81 156 161 178 205 178 186 168 207 232 269 242 237 274 272 192 137 236 209 201 137 146 155
351 350 349 347 340 336 329 325 323 321 319 317 315 311 308 207 168 232 298 198 129 133 114 151 118 158 229 209 173 178 261 202 267 227 218 245 217 180 168 347 336 81 133 146 140
348 348 346 343 339 337 331 323 315 312 308 308 312 318 301 271 253 277 29 127 117 127 178 195 194 184 279 233 38 215 231 218 250 300 285 290 244 103 84 24 101 108 118 141 155
345 345 342 339 336 334 325 316 306 302 302 304 308 315 281 264 258 158 123 123 132 153 198 167 203 209 267 246 147 223 198 246 342 301 272 264 46 58 282 146 110 119 133 134 160
343 340 339 337 334 330 323 313 303 298 301 293 295 288 341 239 19 140 140 140 169 165 211 192 169 104 331 287 221 280 272 297 256 251 299 112 37 356 350 12 92 115 126 161 174
342 336 334 336 334 328 323 313 296 292 288 272 265 250 247 248 163 151 159 264 202 232 263 94 203 225 181 302 13 25 43 16 298 6 319 242 133 314 243 151 141 148 158 172 115
338 332 329 335 337 329 324 310 284 252 178 141 127 69 269 12 193 213 170 218 167 202 251 281 300 42 14 41 14 12 297 332 307 145 180 28 146 233 254 199 166 82 122 203 213
334 329 326 328 334 334 325 282 118 135 130 208 257 358 275 232 205 178 199 43 343 347 335 92 55 58 43 58 287 301 338 290 262 319 49 71 254 211 228 264 84 157 228 269 255
332 328 326 327 330 334 346 75 22 335 179 197 193 257 292 295 190 230 130 120 88 331 218 29 70 162 212 200 217 213 206 256 260 312 79 10 347 313 333 303 50 139 135 343 304
330 329 327 325 326 320 299 151 195 223 310 229 242 270 269 49 331 281 126 146 132 221 121 28 180 221 214 228 231 208 298 291 289 60 84 239 307 303 329 321 347 357 324 278 300
329 328 325 326 323 107 158 237 245 17 315 291 197 196 205 149 219 262 132 166 172 216 216 169 223 216 199 271 339 234 217 260 235 8 37 112 327 325 329 322 292 279 217 240 233
328 328 325 329 323 320 259 213 264 180 56 276 234 262 156 146 279 220 177 151 204 208 156 221 251 214 222 262 169 256 215 240 259 166 251 164 260 278 242 306 310 354 29 228 213
328 327 322 328 294 187 232 336 9 63 54 199 198 101 152 158 206 323 148 87 198 198 119 242 205 208 218 228 178 241 33 255 280 189 117 188 105 257 277 147 118 54 46 19 186
327 325 324 153 240 247 314 329 64 38 357 321 153 150 136 78 327 330 130 60 197 199 225 236 222 165 223 254 202 226 117 65 71 88 15 234 146 268 195 163 171 127 87 98 95
327 322 269 268 227 314 298 51 42 119 320 323 256 131 122 245 198 186 260 342 221 122 269 326 258 257 161 229 38 70 53 343 332 345 226 291 26 234 206 155 190 168 122 110 135
328 323 197 228 292 346 52 52 151 251 262 312 38 74 78 12 14 84 80 352 246 108 109 175 334 352 289 187 200 175 158 161 226 208 240 66 240 256 181 96 96 119 120 140 148
322 316 207 258 202 313 72 82 213 213 290 317 360 59 343 315 78 114 151 213 282 252 152 144 271 307 80 294 91 234 242 191 99 356 36 237 293 313 86 92 115 121 114 149 160
330 333 288 103 167 68 76 227 234 227 328 10 151 173 181 315 95 33 352 129 123 342 262 192 224 7 329 41 70 150 152 70 13 171 254 289 279 239 180 170 160 155 151 185 207
355 21 305 192 72 49 150 234 269 252 70 348 268 244 148 159 166 233 232 78 3 333 40 134 128 272 22 116 204 7 327 56 125 142 191 277 260 213 196 172 169 176 182 187 191
347 53 322 18 51 49 164 223 285 279 307 241 194 180 128 130 3 325 359 345 343 308 21 32 133 222 229 184 157 177 203 158 133 258 236 176 269 265 183 182 171 176 186 196 203
11 275 310 77 89 341 297 282 248 318 295 62 36 69 36 33 88 75 230 220 344 360 178 178 290 341 335 355 35 204 181 158 116 132 201 161 266 344 152 159 173 164 184 195 209
13 11 333 41 93 118 342 288 330 291 284 46 129 91 92 48 10 140 235 259 122 240 28 103 174 187 217 216 175 238 213 188 157 150 190 222 271 269 202 191 174 168 196 201 205
18 342 173 329 319 357 240 286 297 341 352 53 29 24 119 58 20 279 225 275 187 40 26 121 231 197 252 253 237 237 243 223 202 215 181 247 218 242 204 185 189 182 175 192 213
54 14 347 279 303 322 10 334 310 330 5 327 122 148 101 133 195 238 240 191 291 42 12 7 291 342 271 191 291 265 258 248 242 229 247 277 264 215 121 114 144 180 182 188 201
325 332 96 274 330 360 315 294 287 312 331 29 146 100 55 4 114 99 94 98 109 106 40 24 4 8 271 328 297 224 347 17 344 348 193 180 257 91 116 167 187 189 188 193 186